Regional Weather Roundup
Issued by NWS

Home | Current Version | Previous Version | Graphics & Text | Print | Product List | Glossary On
Versions: 1 2 3 4 5 6 7 8 9 10 11 12 13 14 15 16 17 18 19 20 21 22 23 24 25 26 27 28 29 30 31 32 33 34 35 36 37 38 39 40 41 42 43 44 45 46 47 48 49 50
000
ASUS43 KOAX 240702
RWRNE

WEATHER ROUNDUP FOR NEBRASKA
NATIONAL WEATHER SERVICE OMAHA NE
100 AM CST TUE JAN 24 2017

NOTES: SATELLITE DATA IS BEING USED TO AUGMENT CLOUD COVER ABOVE
       12000 FEET.
       "FAIR" INDICATES FEW OR NO CLOUDS BELOW 12,000 FEET WITH NO
       SIGNIFICANT WEATHER AND/OR OBSTRUCTIONS TO VISIBILITY.

  * THESE STATIONS DO NOT REPORT WEATHER SUCH AS RAIN...SNOW OR FOG.

NEZ001>004-019>022-054>056-240800-
NEBRASKA PANHANDLE

CITY           SKY/WX    TMP DP  RH WIND       PRES   REMARKS
SCOTTSBLUFF    SNOW      28  25  88 N5        29.62R VSB 1/2 WCI  23
ALLIANCE       CLOUDY    26  25  96 NE17      29.57F FOG     WCI  13
CHADRON        FOG       24  23  96 NE12      29.67S VSB 3/4 WCI  13
KIMBALL        LGT SNOW  34  33  98 W9        29.56R WCI  26
SIDNEY         CLOUDY    33  29  85 E8        29.52S WCI  26
$$

NEZ057>060-069>072-079>082-240800-
SOUTHWEST NEBRASKA

CITY           SKY/WX    TMP DP  RH WIND       PRES   REMARKS
NORTH PLATTE   CLOUDY    33  31  92 E14       29.60F WCI  23
IMPERIAL       PTCLDY    33  29  85 E10       29.51F WCI  25
LEXINGTON      CLOUDY    32  32  98 E13       29.62F FOG     WCI  23
MCCOOK         PTCLDY    33  31  92 E12       29.54F WCI  24
OGALLALA       PTCLDY    35  31  85 E10       29.55F WCI  27
$$

NEZ005>010-023>029-035>040-094-240800-
NORTH CENTRAL NEBRASKA

CITY           SKY/WX    TMP DP  RH WIND       PRES   REMARKS
VALENTINE      FOG       30  29  96 SE7       29.67S VSB 1/2 WCI  23
AINSWORTH      FOG       32  32 100 SE9       29.67F VSB 3/4 WCI  24
BROKEN BOW     FOG       32  31  96 E12G23    29.65F VSB 1/4 WCI  23
O`NEILL        CLOUDY    32  32  99 SE9       29.72S FOG     WCI  24
ORD            FOG       31  29  92 E12       29.69F VSB 1/2 WCI  22
THEDFORD       FOG       31  31  99 E7        29.64S VSB 1   WCI  25
$$

NEZ041-046>049-061>064-073>077-083>087-240800-
SOUTH CENTRAL NEBRASKA

CITY           SKY/WX    TMP DP  RH WIND       PRES   REMARKS
GRAND ISLAND   CLOUDY    32  32 100 E10       29.70F FOG     WCI  24
AURORA         CLOUDY    32  32 100 E14       29.70F FOG     WCI  22
HASTINGS       CLOUDY    32  31  96 E12       29.68S FOG     WCI  23
HEBRON         CLEAR     31  31 100 E7        29.70S FOG     WCI  24
HOLDREGE       CLOUDY    32  31  96 E15       29.61F FOG     WCI  22
KEARNEY *      CLOUDY    32  30  93 E13       29.66F VSB 1/2 WCI  22
YORK           PTCLDY    32  32 100 E13       29.72F FOG     WCI  22
$$

NEZ011>018-030>034-042>045-240800-
NORTHEAST NEBRASKA

CITY           SKY/WX    TMP DP  RH WIND       PRES   REMARKS
NORFOLK        CLOUDY    29  27  92 SE9       29.75F FOG     WCI  20
ALBION         CLOUDY    32  30  93 SE10      29.73F FOG     WCI  24
BLAIR          CLOUDY    31  29  94 E12       29.78F FOG     WCI  21
FREMONT        CLOUDY    31  31 100 E5        29.79F FOG     WCI  26
TEKAMAH        CLOUDY    31  28  89 SE9       29.82F WCI  23
WAYNE          CLOUDY    31  30  96 SE7       29.78F WCI  24
$$

NEZ050>053-065>068-078-088>093-240800-
SOUTHEAST NEBRASKA

CITY           SKY/WX    TMP DP  RH WIND       PRES   REMARKS
LINCOLN        CLOUDY    30  28  92 E7        29.78F WCI  23
OMAHA EPPLEY   CLOUDY    31  26  82 E7        29.82F WCI  24
BEATRICE       CLEAR     32  31  95 E8        29.74F FOG     WCI  25
FALLS CITY     CLEAR     30  28  92 E9        29.78F WCI  22
NEBRASKA CITY  CLEAR     29  29 100 E6        29.79S FOG     WCI  23
PLATTSMOUTH    CLOUDY    29  27  90 E8        29.80S FOG     WCI  21
$$

NEZ044-045-051>053-067-240800-
OMAHA AREA

CITY           SKY/WX    TMP DP  RH WIND       PRES   REMARKS
OMAHA EPPLEY   CLOUDY    31  26  82 E7        29.82F WCI  24
BLAIR          CLOUDY    31  29  94 E12       29.78F FOG     WCI  21
FREMONT        CLOUDY    31  31 100 E5        29.79F FOG     WCI  26
MILLARD        CLOUDY    32  31  94 E6        29.81S FOG     WCI  26
OFFUTT AFB     CLOUDY    29  29 100 E8        29.80F WCI  22
PLATTSMOUTH    CLOUDY    29  27  90 E8        29.80S FOG     WCI  21
WAHOO          FAIR      30  28  95 E7        29.79F WCI  23
$$



USA.gov is the U.S. government's official web portal to all federal, state and local government web resources and services.